Tracking 28790 objects as of 19-Apr-2024
HD Live streaming from Space Station
objects crossing your sky now

COSMOS 2251 DEB

Track COSMOS 2251 DEB now!
10-day predictions


NORAD ID: 35788
Int'l Code: 1993-036ASJ
Perigee: 597.1 km
Apogee: 620.7 km
Inclination: 74.0 °
Period: 96.7 minutes
Semi major axis: 6979 km
RCS: 0.0017 m2 (small)
Launch date: June 16, 1993
Source: Commonwealth of Independent States (former USSR) (CIS)
Launch site: PLESETSK MISSILE AND SPACE COMPLEX (PKMTR)

Note: This is SATELLITE DEBRIS
Your satellite tracking list
Your tracking list is empty




NASA's NSSDC Master Catalog

Two Line Element Set (TLE):
1 35788U 93036ASJ 24110.12115437  .00069524  00000-0  73405-2 0  9991
2 35788  74.0088   2.3991 0016935 233.5782 126.3838 14.88772972791607
Source of the keplerian elements: AFSPC